Wind_Speed
7 8 4 3 4 4 4 4 3 2 4 8 5 6 9 16 17 16 17 17 16 13 12 8 7 6 7 8 12 12 11 6 3 4 13 6 4 9 10 9 14 16 18 21
7 4 2 3 4 6 6 6 3 3 4 9 10 10 7 14 7 13 23 25 28 27 23 18 16 13 11 12 12 14 11 11 7 7 1 5 8 8 9 13 15 17 18 18
6 2 2 1 5 6 4 4 3 5 10 6 7 6 7 6 11 15 22 26 23 21 22 20 19 17 17 17 16 16 14 12 10 9 7 9 9 9 12 15 16 18 19 17
5 3 3 5 6 4 3 1 5 7 4 4 2 2 2 2 2 3 12 17 18 21 21 22 19 19 17 17 14 11 10 7 4 5 7 10 11 11 13 15 17 17 16 16
3 2 5 7 1 3 3 6 6 3 5 5 4 5 3 3 4 5 9 14 18 20 20 22 18 15 15 14 11 8 6 4 5 8 9 13 14 13 14 15 16 15 19 25
3 3 4 1 3 2 4 6 6 4 3 2 4 5 4 7 7 5 9 16 18 18 19 20 16 12 9 9 7 4 1 4 7 9 10 11 11 11 12 14 16 21 23 23
6 4 4 2 3 3 6 5 3 3 3 4 1 3 6 11 7 11 17 20 18 18 20 19 16 12 9 7 3 2 1 3 3 6 8 7 9 12 14 15 18 22 23 24
4 5 3 4 2 4 2 5 5 6 3 3 3 3 4 7 20 26 25 19 18 17 18 15 14 12 9 8 7 3 1 5 8 7 7 9 12 16 19 21 24 27 27 26
4 1 3 2 1 3 2 2 3 7 3 3 3 4 4 4 5 16 21 16 17 16 17 17 15 13 11 8 4 2 7 9 7 9 11 15 20 23 25 28 31 32 31 26
5 4 2 3 2 7 2 5 3 3 3 2 3 4 4 5 9 8 9 17 18 19 20 19 16 13 9 4 3 8 9 9 9 12 17 22 26 28 30 33 33 31 27 19
3 4 4 1 3 2 2 2 6 5 3 4 1 5 4 9 11 9 14 20 23 25 23 19 14 10 5 1 4 11 7 6 11 17 21 24 26 30 30 32 32 29 19 15
1 5 2 2 2 2 1 3 4 5 3 1 3 5 4 8 13 17 18 21 24 24 20 15 10 6 4 2 3 4 4 10 15 20 22 23 26 29 31 32 29 24 16 15
5 1 3 6 5 4 2 3 4 5 3 4 4 5 4 7 11 14 23 24 23 21 17 12 9 8 6 2 1 5 9 13 16 20 21 23 27 30 31 31 28 22 13 13
4 3 5 6 4 2 3 4 4 5 3 3 6 4 3 4 7 14 22 24 21 17 13 11 11 11 6 2 13 8 11 14 17 19 20 22 26 30 32 30 26 21 17 18
4 4 2 2 4 2 1 4 6 6 5 6 5 7 6 11 10 21 26 22 19 16 14 12 11 9 6 12 7 10 13 15 17 19 20 22 27 31 30 28 26 20 16 13
4 3 0 0 4 5 3 5 6 4 3 7 2 7 5 8 17 21 26 23 20 17 13 13 12 9 11 10 10 13 14 16 19 21 22 22 28 28 28 29 23 14 10 12
3 5 3 3 3 5 6 8 8 5 4 6 6 8 8 5 17 26 26 23 21 17 14 15 14 9 10 13 12 13 16 18 21 23 20 24 27 26 29 24 18 13 11 13
4 4 3 2 3 2 6 2 4 5 4 6 3 5 14 11 19 23 24 23 20 16 14 15 13 12 14 13 13 15 18 21 23 21 22 25 23 27 28 22 16 15 14 17
5 4 3 4 3 5 5 5 7 8 7 9 7 4 8 10 12 18 23 22 18 14 13 12 10 12 13 13 14 17 21 22 19 22 24 23 22 27 25 20 16 16 17 18
5 6 4 3 4 6 6 3 5 4 5 13 16 14 15 15 3 9 20 26 21 15 14 13 13 15 15 13 15 19 21 20 24 21 22 22 23 25 23 17 15 13 16 15
3 3 4 2 3 8 7 3 5 5 7 12 23 25 25 8 17 7 5 14 18 15 15 13 15 14 12 14 18 20 22 22 21 22 23 23 23 24 20 17 15 16 17 14
7 6 4 3 2 8 8 4 7 6 5 13 24 25 30 27 19 8 6 16 16 15 14 14 12 10 12 16 19 22 23 22 23 25 27 25 24 22 19 18 17 17 14 13
2 6 4 8 6 5 15 8 15 6 7 12 21 20 27 29 22 14 15 16 16 16 13 9 8 11 15 17 20 23 22 24 26 27 26 26 22 19 18 16 16 15 13 11
4 6 2 2 4 13 17 21 27 21 22 22 18 20 23 27 21 16 17 17 14 9 6 9 11 15 17 19 20 21 23 26 28 27 24 23 18 15 17 13 14 12 10 13
4 7 4 5 12 17 19 19 20 22 21 21 21 18 20 20 18 18 19 14 10 6 9 10 13 16 18 20 21 22 25 28 27 25 23 18 16 17 20 14 10 10 12 17
9 7 4 6 20 11 16 19 14 16 21 22 19 16 18 17 16 18 12 10 5 8 9 12 14 17 19 21 23 25 26 23 24 25 20 18 16 16 19 12 12 11 14 19
Wind_Direction
23 69 108 196 187 163 164 116 162 349 73 74 71 59 21 55 89 101 112 121 123 122 120 131 152 178 184 182 201 216 243 283 114 119 146 135 349 325 293 309 321 321 322 321
35 81 209 173 99 98 82 101 80 131 23 91 91 56 30 39 50 102 118 114 111 104 104 108 110 109 110 99 84 81 77 80 95 143 182 331 342 354 328 315 306 306 312 308
118 134 59 74 51 79 58 116 213 132 97 94 83 43 22 15 75 111 122 123 122 119 120 114 107 94 87 85 82 90 100 101 89 75 43 11 1 335 305 297 299 300 295 291
98 25 139 69 68 90 84 77 98 137 90 148 31 168 58 350 40 30 139 136 126 122 120 116 108 107 107 106 100 93 90 77 37 359 342 334 322 302 295 294 293 291 291 293
255 75 75 63 84 77 110 99 135 100 81 100 12 89 255 135 229 210 189 158 140 137 131 118 118 120 119 114 113 109 91 39 6 345 332 331 327 312 307 306 298 302 319 321
52 37 49 107 64 56 134 85 50 54 79 45 217 124 238 196 192 184 195 176 160 151 139 131 134 132 138 128 118 102 57 348 339 331 323 323 326 336 346 339 326 317 317 320
11 346 333 33 91 43 70 64 12 9 10 219 344 113 231 206 184 186 188 188 169 159 156 156 155 149 153 140 158 198 224 278 318 319 327 351 350 348 338 327 316 312 320 317
125 338 9 346 104 160 99 146 153 200 186 223 26 236 252 215 189 190 188 186 175 179 179 173 166 159 168 160 151 153 280 315 319 329 342 336 330 328 328 324 319 315 313 314
142 283 321 39 53 121 172 59 161 109 2 78 253 287 321 90 159 184 199 200 183 182 176 167 159 159 155 153 153 294 314 322 337 347 340 340 341 335 331 326 322 317 314 313
190 104 45 323 93 44 136 143 66 9 135 271 290 274 232 191 200 193 183 194 185 175 167 164 159 157 156 168 325 328 326 328 337 338 333 335 336 333 332 330 327 326 322 303
120 97 280 27 28 166 22 45 57 106 102 157 220 261 224 213 200 181 191 196 185 176 170 164 161 160 169 225 316 313 309 327 333 335 338 340 341 342 339 335 334 336 332 294
60 123 128 182 270 253 151 132 123 110 205 67 145 273 354 262 202 177 183 181 174 170 160 161 163 181 204 291 288 324 330 329 333 339 342 344 343 344 342 340 339 341 337 313
179 20 61 355 356 345 170 115 97 105 90 196 128 264 16 75 109 164 162 167 162 161 163 171 190 203 196 213 289 315 318 326 332 339 343 345 342 342 341 341 339 334 319 298
110 92 153 182 198 189 172 156 140 117 116 187 227 261 224 185 157 153 163 165 165 170 180 196 197 195 203 244 299 293 314 321 330 338 339 337 338 341 340 338 335 322 297 292
84 124 89 65 18 334 259 187 177 187 182 175 245 210 232 204 191 176 173 172 177 188 199 209 206 211 272 289 264 298 310 320 327 330 329 330 336 337 336 336 331 319 307 298
11 165 38 125 3 5 286 259 215 213 203 257 275 275 207 192 187 181 183 187 196 205 214 217 216 236 267 244 282 298 310 317 320 323 325 325 329 332 334 331 327 318 324 319
76 132 96 262 359 339 336 224 200 197 191 160 197 236 158 177 187 190 192 200 210 217 220 223 225 252 260 261 287 300 306 311 315 315 312 320 325 330 332 325 323 311 296 326
122 91 72 185 22 8 240 293 224 208 217 204 225 210 195 199 199 202 207 215 221 225 227 223 236 259 259 269 286 291 299 307 305 301 311 318 322 329 330 320 312 302 290 303
59 110 91 142 192 294 306 200 169 177 259 192 203 177 168 182 188 227 222 227 232 235 233 239 251 257 246 264 273 289 302 300 298 306 312 316 319 326 327 319 314 310 292 292
58 71 107 92 141 218 239 249 182 120 290 199 183 177 168 153 154 241 238 231 227 226 224 235 249 237 256 267 285 297 302 300 307 308 310 311 315 321 320 316 307 302 310 302
31 13 152 125 236 289 242 173 148 102 244 181 192 192 180 189 216 243 217 225 219 221 227 233 238 243 264 286 298 302 301 308 307 308 309 308 307 312 309 309 304 302 301 297
170 153 198 102 66 281 172 111 161 218 202 195 200 209 208 224 227 226 219 189 207 218 211 230 234 260 291 304 303 304 309 312 312 310 309 306 303 297 296 299 300 304 296 293
236 189 182 184 216 234 203 233 226 262 246 226 222 240 228 225 216 218 202 198 215 204 205 222 259 292 304 305 306 309 312 312 312 311 309 309 300 285 280 291 300 302 289 272
248 173 196 82 254 247 260 246 256 264 265 274 273 253 242 231 218 212 202 179 172 181 261 259 289 301 307 310 311 309 312 312 313 312 307 311 298 285 283 286 302 295 280 298
201 153 185 262 279 277 275 274 282 278 277 272 266 260 233 214 208 204 185 182 184 253 246 284 299 307 315 316 314 311 311 313 312 312 307 304 294 283 284 271 286 286 300 318
195 193 165 231 268 253 282 300 295 286 289 282 260 224 208 212 199 175 174 171 211 244 281 293 306 313 317 317 317 316 315 311 311 315 315 312 290 279 279 254 252 282 305 325
Height
1491 1502 1513 1507 1505 1506 1509 1513 1519 1520 1520 1531 1543 1543 1541 1537 1536 1536 1537 1539 1540 1542 1544 1545 1548 1549 1551 1553 1556 1560 1562 1564 1565 1567 1572 1572 1572 1572 1570 1569 1567 1564 1562 1561
1501 1510 1504 1505 1503 1506 1512 1520 1527 1524 1524 1530 1540 1547 1545 1541 1542 1541 1540 1541 1542 1544 1547 1549 1549 1551 1553 1557 1559 1561 1563 1565 1567 1569 1570 1571 1570 1569 1568 1565 1563 1561 1559 1557
1507 1506 1503 1504 1506 1510 1516 1520 1521 1527 1528 1533 1535 1549 1551 1548 1546 1545 1544 1544 1545 1547 1547 1550 1551 1554 1555 1558 1560 1562 1565 1567 1568 1568 1568 1567 1567 1567 1565 1563 1560 1558 1555 1553
1506 1504 1507 1507 1509 1512 1518 1515 1521 1528 1529 1546 1537 1567 1553 1552 1551 1550 1548 1548 1548 1547 1550 1549 1554 1557 1559 1559 1563 1565 1565 1565 1566 1567 1566 1565 1564 1563 1561 1559 1556 1553 1551 1549
1510 1507 1509 1511 1510 1510 1519 1517 1522 1526 1535 1540 1543 1558 1557 1554 1554 1551 1550 1550 1550 1551 1551 1551 1556 1559 1561 1560 1561 1564 1564 1565 1564 1564 1563 1561 1560 1559 1557 1555 1553 1551 1549 1547
1507 1505 1507 1509 1510 1512 1514 1521 1528 1533 1540 1560 1543 1552 1560 1554 1546 1547 1549 1549 1550 1551 1553 1552 1556 1560 1563 1562 1562 1563 1562 1562 1561 1560 1559 1558 1557 1556 1555 1553 1551 1548 1546 1543
1513 1513 1511 1510 1513 1514 1518 1528 1553 1555 1568 1564 1543 1549 1542 1538 1539 1541 1544 1546 1549 1551 1553 1553 1555 1554 1560 1560 1561 1561 1560 1560 1558 1557 1556 1555 1554 1553 1552 1550 1546 1543 1539 1537
1527 1538 1515 1512 1513 1518 1522 1528 1551 1556 1573 1555 1543 1549 1539 1532 1535 1538 1541 1545 1548 1550 1551 1552 1554 1553 1556 1557 1558 1559 1558 1557 1557 1556 1554 1553 1552 1551 1548 1545 1541 1537 1534 1530
1525 1524 1513 1513 1512 1515 1522 1535 1530 1553 1564 1562 1557 1541 1534 1532 1535 1537 1540 1543 1546 1548 1550 1552 1552 1552 1553 1555 1555 1557 1557 1557 1556 1556 1554 1551 1549 1547 1543 1540 1536 1531 1526 1522
1514 1525 1516 1514 1514 1516 1517 1525 1539 1553 1559 1566 1558 1549 1545 1536 1535 1535 1537 1539 1544 1546 1547 1549 1550 1550 1551 1552 1555 1556 1555 1555 1554 1553 1551 1548 1546 1544 1539 1534 1529 1524 1520 1517
1511 1520 1526 1517 1522 1524 1525 1529 1539 1546 1561 1569 1579 1554 1532 1529 1528 1531 1534 1537 1540 1543 1545 1547 1548 1549 1550 1552 1553 1554 1555 1554 1553 1551 1549 1546 1543 1539 1535 1530 1524 1519 1516 1514
1512 1525 1542 1524 1519 1520 1520 1525 1534 1557 1550 1574 1578 1553 1530 1527 1526 1529 1533 1536 1539 1542 1545 1546 1548 1550 1551 1552 1553 1553 1553 1552 1550 1548 1546 1543 1539 1535 1530 1525 1519 1514 1511 1511
1512 1529 1547 1536 1527 1521 1520 1526 1534 1542 1553 1555 1572 1549 1529 1526 1526 1529 1531 1536 1540 1542 1544 1546 1548 1549 1550 1550 1552 1553 1551 1550 1548 1545 1542 1538 1534 1530 1525 1520 1516 1512 1509 1508
1510 1525 1528 1540 1528 1527 1524 1525 1530 1534 1559 1552 1553 1532 1530 1530 1529 1530 1532 1537 1539 1541 1543 1544 1546 1547 1548 1549 1549 1549 1549 1547 1544 1541 1537 1534 1530 1525 1520 1515 1511 1508 1506 1503
1512 1524 1526 1530 1531 1525 1522 1523 1529 1531 1532 1539 1531 1533 1524 1525 1526 1528 1532 1535 1538 1540 1542 1543 1543 1545 1546 1545 1545 1545 1545 1543 1540 1536 1533 1529 1525 1521 1516 1512 1508 1503 1501 1500
1517 1534 1531 1529 1534 1535 1527 1524 1526 1527 1526 1530 1527 1526 1519 1520 1524 1528 1529 1532 1534 1536 1538 1539 1541 1541 1542 1542 1543 1542 1541 1539 1536 1532 1529 1525 1521 1517 1512 1508 1504 1501 1499 1497
1524 1535 1538 1542 1543 1539 1540 1521 1521 1519 1518 1520 1528 1516 1517 1520 1520 1521 1525 1528 1530 1532 1534 1535 1537 1538 1539 1540 1540 1538 1537 1534 1531 1528 1525 1521 1517 1513 1508 1503 1500 1498 1496 1495
1528 1535 1547 1552 1551 1554 1513 1511 1512 1512 1512 1513 1513 1512 1511 1512 1516 1520 1523 1524 1526 1529 1531 1532 1534 1535 1536 1537 1536 1534 1532 1530 1526 1524 1520 1517 1513 1509 1504 1500 1496 1495 1493 1491
1519 1532 1551 1552 1557 1530 1508 1510 1511 1511 1508 1505 1508 1509 1512 1514 1518 1518 1518 1520 1523 1525 1527 1529 1531 1532 1533 1532 1532 1530 1528 1525 1522 1519 1515 1512 1508 1504 1499 1496 1493 1491 1489 1487
1523 1526 1538 1563 1554 1547 1511 1502 1502 1503 1517 1497 1500 1505 1508 1514 1525 1510 1511 1514 1517 1520 1523 1525 1527 1528 1528 1528 1528 1526 1523 1520 1517 1514 1510 1507 1504 1500 1496 1493 1490 1488 1486 1484
1538 1542 1550 1568 1559 1531 1503 1502 1503 1520 1511 1494 1497 1500 1504 1508 1503 1505 1507 1510 1514 1517 1519 1522 1523 1524 1525 1525 1523 1521 1518 1515 1511 1508 1504 1501 1498 1495 1493 1489 1487 1485 1483 1480
1526 1538 1546 1554 1559 1528 1499 1503 1509 1497 1492 1493 1494 1496 1497 1498 1500 1503 1504 1507 1512 1514 1516 1519 1520 1521 1521 1520 1518 1515 1512 1508 1505 1502 1498 1495 1492 1489 1488 1485 1483 1481 1479 1477
1520 1513 1521 1521 1514 1497 1497 1493 1492 1492 1492 1491 1491 1491 1492 1494 1497 1499 1501 1504 1507 1511 1514 1516 1518 1518 1517 1515 1512 1509 1506 1503 1499 1496 1491 1488 1485 1483 1482 1481 1479 1477 1475 1474
1506 1504 1511 1508 1494 1491 1491 1491 1490 1490 1489 1489 1489 1489 1488 1489 1494 1498 1501 1503 1506 1512 1514 1514 1514 1513 1512 1510 1507 1504 1501 1497 1493 1489 1485 1481 1478 1478 1477 1477 1476 1474 1473 1472
1503 1502 1502 1503 1492 1488 1487 1486 1486 1485 1484 1484 1484 1484 1485 1488 1491 1494 1498 1501 1506 1509 1510 1510 1509 1508 1506 1504 1502 1499 1495 1491 1486 1482 1479 1476 1474 1473 1473 1472 1472 1471 1470 1468
1493 1493 1500 1498 1483 1484 1484 1483 1483 1482 1480 1480 1480 1481 1483 1486 1489 1495 1497 1501 1504 1506 1506 1505 1504 1503 1501 1499 1497 1493 1488 1484 1480 1476 1473 1471 1469 1468 1467 1467 1468 1468 1466 1463